Location: Jackson Park
(37.2862°N, 79.9123°W)
Time: 13:55:28
(UTC+00:00)

S-56A Canister/Altair - Pass Details

Date: 11 May 2026
Orbit: 633 x 2484 km, 38.9° (Epoch: 6 June)

Event Time Altitude Azimuth Distance (km) Brightness Sun altitude
Rises 02:38:05 0° 236° (WSW) 2,939 10.6 -23.5°
Reaches altitude 10° 02:40:24 10° 231° (SW) 2,002 9.7 -23.8°
Enters shadow 02:41:46 19° 225° (SW) 1,479 8.9 -24.0°
Maximum altitude 02:44:40 51° 155° (SSE) 817 - -24.3°
Drops below altitude 10° 02:49:32 10° 80° (E) 2,273 - -25.0°
Sets 02:52:18 0° 75° (ENE) 3,387 - -25.3°
